When you browse on this site, cookies collect data to enhance your experience and personalize the content and advertising you see.
Visit our Privacy Policy to learn more. By continuing to use the site, you agree to this use of cookies and data.
  • In Germany
  • List of Countries
  • For 7 days
  • Water Temperature
  • Weather Map
  • Weather Widgets
  • user-avatar
    Login

    Hourly Weather Satif

    Today, 16 September, Monday

    Time Temperature Precipitation Wind Pressure Humidity
    00:00 +24°C° 0 mm 2 mps 676 mmHg 58%
    01:00 +24°C° 0.2 mm 2 mps 676 mmHg 58%
    02:00 +23°C° 0.2 mm 2 mps 675 mmHg 59%
    03:00 +23°C° 0.2 mm 2 mps 675 mmHg 60%
    04:00 +23°C° 0 mm 2 mps 675 mmHg 60%
    05:00 +23°C° 0 mm 2 mps 675 mmHg 60%
    06:00 +23°C° 0 mm 2 mps 675 mmHg 60%
    07:00 +24°C° 0.1 mm 2 mps 676 mmHg 55%
    08:00 +25°C° 0.1 mm 2 mps 676 mmHg 50%
    09:00 +27°C° 0.1 mm 2 mps 677 mmHg 45%
    10:00 +28°C° 0 mm 2 mps 677 mmHg 41%
    11:00 +29°C° 0 mm 3 mps 677 mmHg 38%
    12:00 +31°C° 0 mm 3 mps 677 mmHg 34%
    13:00 +31°C° 0 mm 3 mps 677 mmHg 33%
    14:00 +31°C° 0 mm 3 mps 677 mmHg 32%
    15:00 +31°C° 0 mm 3 mps 677 mmHg 31%
    16:00 +30°C° 0 mm 3 mps 676 mmHg 36%
    17:00 +29°C° 0 mm 2 mps 676 mmHg 42%
    18:00 +28°C° 0 mm 2 mps 676 mmHg 47%
    19:00 +27°C° 0 mm 2 mps 676 mmHg 50%
    20:00 +27°C° 0 mm 1 mps 676 mmHg 52%
    21:00 +26°C° 0 mm 1 mps 676 mmHg 55%
    22:00 +26°C° 0 mm 1 mps 676 mmHg 55%
    23:00 +25°C° 0 mm 1 mps 675 mmHg 55%

    Tomorrow, 17 September, Tuesday

    Time Temperature Precipitation Wind Pressure Humidity
    00:00 +25°C° 0 mm 2 mps 675 mmHg 55%
    01:00 +24°C° 0 mm 1 mps 675 mmHg 56%
    02:00 +24°C° 0 mm 1 mps 675 mmHg 57%
    03:00 +24°C° 0 mm 1 mps 674 mmHg 58%
    04:00 +23°C° 0 mm 1 mps 674 mmHg 59%
    05:00 +23°C° 0 mm 1 mps 674 mmHg 60%
    06:00 +23°C° 0 mm 1 mps 674 mmHg 60%
    07:00 +25°C° 0 mm 2 mps 675 mmHg 54%
    08:00 +26°C° 0 mm 2 mps 676 mmHg 47%
    09:00 +28°C° 0 mm 3 mps 676 mmHg 40%
    10:00 +29°C° 0 mm 4 mps 676 mmHg 39%
    11:00 +30°C° 0 mm 4 mps 676 mmHg 37%
    12:00 +32°C° 0 mm 5 mps 676 mmHg 35%
    13:00 +32°C° 0 mm 4 mps 676 mmHg 36%
    14:00 +32°C° 0 mm 4 mps 675 mmHg 36%
    15:00 +32°C° 0 mm 4 mps 675 mmHg 36%
    16:00 +29°C° 0 mm 3 mps 675 mmHg 43%
    17:00 +28°C° 0 mm 3 mps 675 mmHg 51%
    18:00 +27°C° 0 mm 2 mps 674 mmHg 58%
    19:00 +25°C° 0.7 mm 5 mps 674 mmHg 63%
    20:00 +22°C° 0.7 mm 8 mps 674 mmHg 68%
    21:00 +21°C° 0.7 mm 11 mps 675 mmHg 73%
    22:00 +21°C° 0.2 mm 9 mps 674 mmHg 66%
    23:00 +22°C° 0.2 mm 8 mps 674 mmHg 58%

    Day after tomorrow, 18 September, Wednesday

    Time Temperature Precipitation Wind Pressure Humidity
    00:00 +23°C° 0.2 mm 6 mps 674 mmHg 51%
    01:00 +22°C° 0 mm 5 mps 674 mmHg 53%
    02:00 +22°C° 0 mm 3 mps 673 mmHg 54%
    03:00 +23°C° 0 mm 2 mps 673 mmHg 56%
    04:00 +23°C° 0 mm 2 mps 673 mmHg 56%
    05:00 +23°C° 0 mm 2 mps 673 mmHg 56%
    06:00 +23°C° 0 mm 2 mps 673 mmHg 56%
    07:00 +24°C° 0 mm 3 mps 674 mmHg 49%
    08:00 +26°C° 0 mm 4 mps 674 mmHg 42%
    09:00 +28°C° 0 mm 5 mps 675 mmHg 35%
    10:00 +29°C° 0 mm 5 mps 675 mmHg 33%
    11:00 +30°C° 0 mm 5 mps 675 mmHg 32%
    12:00 +32°C° 0 mm 6 mps 675 mmHg 30%
    13:00 +32°C° 0 mm 6 mps 675 mmHg 31%
    14:00 +30°C° 0 mm 6 mps 675 mmHg 32%
    15:00 +30°C° 0 mm 6 mps 675 mmHg 33%
    16:00 +29°C° 0 mm 5 mps 675 mmHg 39%
    17:00 +28°C° 0 mm 4 mps 675 mmHg 44%
    18:00 +26°C° 0 mm 3 mps 675 mmHg 50%
    19:00 +25°C° 0.4 mm 2 mps 675 mmHg 55%
    20:00 +24°C° 0.4 mm 2 mps 675 mmHg 59%
    21:00 +23°C° 0.4 mm 1 mps 675 mmHg 64%
    22:00 +23°C° 0.1 mm 1 mps 675 mmHg 63%
    23:00 +23°C° 0.1 mm 1 mps 674 mmHg 63%

    19 September, Thursday

    Time Temperature Precipitation Wind Pressure Humidity
    00:00 +23°C° 0.1 mm 1 mps 674 mmHg 62%
    01:00 +23°C° 0 mm 1 mps 674 mmHg 61%
    02:00 +22°C° 0 mm 1 mps 674 mmHg 61%
    03:00 +21°C° 0 mm 2 mps 673 mmHg 60%
    04:00 +22°C° 0.2 mm 1 mps 673 mmHg 60%
    05:00 +22°C° 0.2 mm 1 mps 674 mmHg 61%
    06:00 +22°C° 0.2 mm 1 mps 674 mmHg 61%
    07:00 +24°C° 0.1 mm 1 mps 674 mmHg 55%
    08:00 +25°C° 0.1 mm 2 mps 675 mmHg 50%
    09:00 +26°C° 0.1 mm 2 mps 676 mmHg 44%
    10:00 +27°C° 0 mm 3 mps 676 mmHg 42%
    11:00 +27°C° 0 mm 4 mps 676 mmHg 40%
    12:00 +28°C° 0 mm 5 mps 676 mmHg 38%
    13:00 +28°C° 0.1 mm 4 mps 676 mmHg 39%
    14:00 +28°C° 0.1 mm 4 mps 676 mmHg 40%
    15:00 +28°C° 0.1 mm 3 mps 675 mmHg 40%
    16:00 +27°C° 0.1 mm 3 mps 675 mmHg 46%
    17:00 +26°C° 0.1 mm 2 mps 675 mmHg 52%
    18:00 +25°C° 0.1 mm 1 mps 675 mmHg 58%
    19:00 +25°C° 0 mm 1 mps 675 mmHg 61%
    20:00 +24°C° 0 mm 1 mps 675 mmHg 64%
    21:00 +24°C° 0 mm 2 mps 675 mmHg 67%
    22:00 +23°C° 0 mm 1 mps 675 mmHg 69%
    23:00 +23°C° 0 mm 1 mps 675 mmHg 71%

    20 September, Friday

    Time Temperature Precipitation Wind Pressure Humidity
    00:00 +23°C° 0 mm 1 mps 674 mmHg 72%
    01:00 +23°C° 0 mm 1 mps 674 mmHg 71%
    02:00 +22°C° 0 mm 1 mps 674 mmHg 71%
    03:00 +22°C° 0 mm 1 mps 673 mmHg 70%
    04:00 +23°C° 0 mm 1 mps 673 mmHg 66%
    05:00 +23°C° 0 mm 2 mps 673 mmHg 62%
    06:00 +23°C° 0 mm 2 mps 673 mmHg 59%
    07:00 +25°C° 0 mm 2 mps 674 mmHg 52%
    08:00 +26°C° 0 mm 2 mps 675 mmHg 46%
    09:00 +27°C° 0 mm 2 mps 675 mmHg 40%
    10:00 +28°C° 0 mm 3 mps 675 mmHg 36%
    11:00 +29°C° 0 mm 3 mps 676 mmHg 33%
    12:00 +30°C° 0 mm 4 mps 676 mmHg 29%
    13:00 +30°C° 0 mm 4 mps 675 mmHg 30%
    14:00 +30°C° 0 mm 4 mps 675 mmHg 30%
    15:00 +30°C° 0 mm 5 mps 675 mmHg 31%
    16:00 +29°C° 0 mm 5 mps 674 mmHg 33%
    17:00 +28°C° 0 mm 5 mps 674 mmHg 36%
    18:00 +27°C° 0 mm 6 mps 674 mmHg 39%
    19:00 +26°C° 0.3 mm 6 mps 675 mmHg 44%
    20:00 +24°C° 0.3 mm 6 mps 675 mmHg 48%
    21:00 +23°C° 0.3 mm 6 mps 675 mmHg 53%
    22:00 +23°C° 0.1 mm 5 mps 675 mmHg 51%
    23:00 +23°C° 0.1 mm 4 mps 674 mmHg 50%

    21 September, Saturday

    Time Temperature Precipitation Wind Pressure Humidity
    00:00 +24°C° 0.1 mm 2 mps 674 mmHg 49%
    01:00 +23°C° 0.1 mm 2 mps 674 mmHg 50%
    02:00 +23°C° 0.1 mm 2 mps 673 mmHg 51%
    03:00 +23°C° 0.1 mm 2 mps 673 mmHg 52%
    04:00 +21°C° 0.3 mm 2 mps 673 mmHg 54%
    05:00 +21°C° 0.3 mm 2 mps 673 mmHg 56%
    06:00 +21°C° 0.3 mm 2 mps 673 mmHg 57%
    07:00 +22°C° 0.1 mm 3 mps 674 mmHg 52%
    08:00 +25°C° 0.1 mm 3 mps 675 mmHg 47%
    09:00 +26°C° 0.1 mm 4 mps 676 mmHg 42%
    10:00 +28°C° 0 mm 6 mps 676 mmHg 39%
    11:00 +29°C° 0 mm 8 mps 676 mmHg 36%
    12:00 +31°C° 0 mm 9 mps 676 mmHg 33%
    13:00 +31°C° 0 mm 9 mps 676 mmHg 36%
    14:00 +29°C° 0 mm 9 mps 675 mmHg 39%
    15:00 +29°C° 0 mm 9 mps 675 mmHg 42%
    16:00 +28°C° 0 mm 7 mps 674 mmHg 46%
    17:00 +27°C° 0 mm 5 mps 674 mmHg 51%
    18:00 +26°C° 0 mm 3 mps 674 mmHg 55%
    19:00 +25°C° 0 mm 3 mps 674 mmHg 57%
    20:00 +25°C° 0 mm 2 mps 674 mmHg 59%
    21:00 +24°C° 0 mm 1 mps 675 mmHg 61%
    22:00 +24°C° 0 mm 1 mps 675 mmHg 63%
    23:00 +23°C° 0 mm 1 mps 674 mmHg 66%
    Show more